Torrington, WY

5:09 PM MDT on April 25, 2018 (GMT -0600)
Torrington Municipal

Weather History for KTOR - February, 2014

Change the Weather History Date:

Friday, February 14, 2014

  Actual Average Record
Temperature  
Mean Temperature 35 °F 31 °F  
Max Temperature 45 °F 45 °F 59 °F (2018)
Min Temperature 24 °F 17 °F -2 °F (2007)
Degree Days  
Heating Degree Days 30 34  
Month to date heating degree days 727 492  
Since 1 July heating degree days 4581 4387  
Cooling Degree Days 0 0  
Month to date cooling degree days 0 0  
Year to date cooling degree days 0 0  
Moisture  
Dew Point 27 °F    
Average Humidity 69    
Maximum Humidity 100    
Minimum Humidity 38    
Precipitation  
Precipitation 0.08 in 0.01 in 0.08 in (2014)
Month to date precipitation 0.38 0.16  
Year to date precipitation 0.58 0.42  
Sea Level Pressure  
Sea Level Pressure 29.92 in    
Wind  
Wind Speed 8 mph (WNW)    
Max Wind Speed 16 mph    
Max Gust Speed 22 mph    
Visibility 8 miles    
Events Snow    
T = Trace of Precipitation, MM = Missing Value Source: NWS Daily Summary

Daily Weather History Graph

Daily Weather History Graph

Search for Another Location

Airport or City:

Astronomy

Feb. 14, 2014 Rise Set
Actual Time 6:53 AM MST 5:28 PM MST
Civil Twilight 6:25 AM MST 5:57 PM MST
Nautical Twilight 5:52 AM MST 6:29 PM MST
Astronomical Twilight 5:20 AM MST 7:02 PM MST
Moon 5:35 PM MST (2/14) 6:21 AM MST (2/14)
Length of Visible Light 11h 31m
Length of Day
10h 34m
Full, 100% of the Moon is Illuminated
Feb 14
Full
Feb 14
Full
Feb 22
Last Quarter
Mar 1
New
Mar 8
First Quarter

Hourly Weather History & Observations

Time (MST) Temp. Windchill Dew Point Humidity Pressure Visibility Wind Dir Wind Speed Gust Speed Precip Events Conditions
12:01 AM 33.1 °F 25.5 °F 30.9 °F 92% 29.85 in 1.2 mi WNW 9.2 mph - 0.01 in Snow Light Snow
12:14 AM 32.0 °F 23.6 °F 30.9 °F 96% 29.86 in 1.0 mi WNW 10.4 mph - 0.02 in Snow Light Snow
12:49 AM 32.0 °F 24.8 °F 30.2 °F 93% 29.88 in 2.0 mi West 8.1 mph - 0.05 in Snow Light Snow
12:53 AM 32.0 °F 25.6 °F 32.0 °F 100% 29.89 in 2.0 mi WNW 6.9 mph - 0.05 in Snow Light Snow
1:00 AM 32.0 °F 23.6 °F 32.0 °F 100% 29.89 in 3.0 mi WNW 10.4 mph - 0.00 in Snow Light Snow
1:12 AM 32.0 °F 23.6 °F 30.9 °F 96% 29.89 in 5.0 mi WNW 10.4 mph - 0.01 in Snow Light Snow
1:24 AM 33.1 °F 25.5 °F 32.0 °F 96% 29.88 in 8.0 mi WNW 9.2 mph - 0.02 in Snow Light Snow
1:53 AM 32.0 °F 25.6 °F 30.9 °F 96% 29.89 in 10.0 mi WNW 6.9 mph - 0.02 in   Overcast
2:53 AM 33.1 °F 23.9 °F 28.9 °F 85% 29.90 in 10.0 mi WNW 12.7 mph - 0.01 in   Overcast
3:53 AM 33.1 °F 24.4 °F 28.9 °F 85% 29.93 in 10.0 mi NW 11.5 mph - N/A   Overcast
4:53 AM 30.9 °F 22.8 °F 26.1 °F 82% 29.95 in 10.0 mi NNW 9.2 mph - N/A   Clear
5:53 AM 26.1 °F 17.6 °F 21.9 °F 84% 29.99 in 10.0 mi WNW 8.1 mph - N/A   Clear
6:53 AM 24.1 °F 15.2 °F 21.0 °F 88% 30.04 in 10.0 mi West 8.1 mph - N/A   Clear
7:53 AM 25.0 °F 16.3 °F 21.0 °F 85% 30.08 in 10.0 mi WNW 8.1 mph - N/A   Clear
8:53 AM 28.0 °F - 24.1 °F 85% 30.09 in 10.0 mi Calm Calm - N/A   Clear
9:53 AM 32.0 °F 25.6 °F 25.0 °F 75% 30.09 in 10.0 mi WNW 6.9 mph - N/A   Clear
10:53 AM 35.1 °F 31.0 °F 26.1 °F 70% 30.08 in 10.0 mi WNW 4.6 mph - N/A   Clear
11:53 AM 36.0 °F 30.3 °F 26.1 °F 67% 30.06 in 10.0 mi WSW 6.9 mph - N/A   Clear
12:53 PM 39.9 °F 36.7 °F 17.1 °F 40% 30.02 in 10.0 mi NNW 4.6 mph - N/A   Clear
1:53 PM 41.0 °F 39.0 °F 18.0 °F 40% 29.97 in 10.0 mi Variable 3.5 mph - N/A   Clear
2:53 PM 39.9 °F 36.7 °F 17.1 °F 40% 29.94 in 10.0 mi SSE 4.6 mph - N/A   Scattered Clouds
3:53 PM 39.0 °F 32.8 °F 21.0 °F 49% 29.91 in 10.0 mi SSE 9.2 mph - N/A   Mostly Cloudy
4:53 PM 36.0 °F 29.0 °F 21.0 °F 55% 29.89 in 10.0 mi SE 9.2 mph - N/A   Clear
5:53 PM 35.1 °F 27.4 °F 24.1 °F 64% 29.90 in 10.0 mi SE 10.4 mph - N/A   Clear
6:53 PM 36.0 °F 27.5 °F 28.9 °F 76% 29.88 in 10.0 mi SSE 12.7 mph - N/A   Overcast
7:53 PM 36.0 °F 30.3 °F 28.9 °F 76% 29.83 in 10.0 mi SSE 6.9 mph - N/A   Scattered Clouds
8:53 PM 35.1 °F 28.6 °F 30.0 °F 82% 29.81 in 10.0 mi ENE 8.1 mph - N/A   Overcast
9:53 PM 35.1 °F 28.6 °F 30.0 °F 82% 29.78 in 10.0 mi NE 8.1 mph - N/A   Overcast
10:53 PM 37.0 °F 32.4 °F 30.9 °F 79% 29.75 in 10.0 mi North 5.8 mph - N/A   Overcast
11:53 PM 44.1 °F 39.0 °F 33.1 °F 65% 29.70 in 10.0 mi WNW 9.2 mph - N/A   Clear